COSMOS 886 DEB, 9951

Orbit data source: Space-Track

COSMOS 886 DEB, 9951 is space debris in LEO originally from a launch on Mon, 27 Dec 1976 UTC launched from the Tyuratam Missile And Space Complex (TTMTR). Debris objects in space refer to the collection of defunct objects orbiting the Earth. Examples of debris include non-operational satellites, rocket bodies, and fragments generated from explosions, collisions, or faulty payload assembly.

Loading next visibility...
Identifier
9951, 1976-126AR
Orbit
LEO
Country
Flag of CISCIS
Related business
Manufacturer
Unknown
Mission
Spacecraft
Bus & Motor
Unknown
Mass
Unknown
Launch date (UTC)
1976-12-27 (49 years ago)
Launch vehicle
Unknown
Launch site
Tyuratam Missile And Space Complex (TTMTR)
Object type
Payload
Rocket body
Debris
Shape & HBR
Unknown shape, 0.1 m
Radar Cross Section
Medium (>0.1 m² and <1 m²)

Expand to show TLE details & history
Last TLE update: 2 days ago

TLE from 2 days ago
0 COSMOS 886 DEB
1 09951U 76126AR  26174.16212104  .00001857  00000-0  71420-3 0  9991
2 09951  65.8208  90.7856 0771283  91.8950 277.0514 13.32240344 60727
Epoch: 2026-06-23T03:53Z
TLE epoch observation values (Epoch: 2026-06-23T03:53:27.257Z)
Latitude
0.00001°
Longitude
121.08439°
Altitude
1,113.611 km
Speed
7.309 km/s
True Right ascension
06h 03m 08s
True Declination
0° 00' 00"
Sunlit
Object was in daylight at epoch
Visualization orbit readout
Latitude
Unknown
Longitude
Unknown
Altitude
Unknown
Speed
Unknown
Apparent Right ascension
Unknown
Apparent Declination
Unknown
Sunlit
N/A
Visualization observer readout
Local Sidereal Time
06:19:39
Azimuth
Unknown
Elevation
Unknown
Doppler factor
Unknown
Orbital elements
Apogee altitude
1,716.48 km
Perigee altitude
557.242 km
Semi-major axis
7,514.998 km
Eccentricity
0.07713
Inclination
65.8208°
RAAN
90.7856°
Arg. of periapsis
91.895°
True anomaly
268.21026°
Mean anomaly
277.0514°
Eccentric anomaly
272.63695°
Mean motion
3.33158 °/min
Orbital period
108.06 mins
BSTAR
0.0007142
Loading maneuver chart data...
Computing Atmospheric mass density...
Loading historical data...
Loading historical data...
Loading historical data...
Loading historical data...
Loading historical data...
Loading historical data...
Loading historical data...

Documentation

Showing up to 5 results
|